Location: Limoges
(45.8354°N, 1.2645°E)
Time: 19:09:47
(UTC+02:00)

Vanguard 2 Rocket - Pass Details

Date: 23 February 2024
Orbit: 555 x 3307 km, 32.9° (Epoch: 11 April)

Event Time Altitude Azimuth Distance (km) Brightness Sun altitude
Rises 23:24:42 0° 272° (W) 6,985 11.8 -47.7°
Reaches altitude 10° 23:33:19 10° 251° (WSW) 6,221 11.2 -48.6°
Maximum altitude 23:40:54 13° 228° (SW) 5,941 10.9 -49.4°
Enters shadow 23:44:51 12° 216° (SW) 5,963 10.8 -49.7°
